CICERO 10 (43690 NORAD) Tracking and Keplerian Element Data

This shows tracking and keplerian element data for the satellite.

Feedback or suggestion? Click here.




ElementValue
Catalog43690
NameCICERO 10
Epoch Orbit3699
Epoch Day193.79318287
Epoch Year2019
RAAN302.6392
Inclination85.0392
Eccentricity0.0017258
Argument of Perigee115.9765
Mean Anonmoly244.3256
Mean Motion15.19688423
Decay Rate9.14E-06
L11 43690U 18088A 19193.79318287 .00000914 00000-0 40814-4 0 9990
L22 43690 85.0392 302.6392 0017258 115.9765 244.3256 15.19688423 36993

Live tracking and technical data element details for CICERO 10 (NORAD 43690). CICERO 10 can be tracked NOW for your location showing map with azimuth and elevation plus other details from your city location.

Track the satellite on the map from your city or location and see movement details for azimuth, elevation, latitude, longitude, range, height, and movement on the map or in text.







IsCatalogInMostPopularTable: catalog: 43690, numindb: 149
Update: records affected: 1



GetName: 43690 CICERO 10

Hit Count: updated at: Mon, 15 Jul 2019 21:53:54 GMT